Change the Weather History Date:

Monday, November 19, 2012

  Actual Average (KCMI) Record (KCMI)
Temperature  
Mean Temperature 48 °F 40 °F  
Max Temperature 59 °F 49 °F 66 °F (2007)
Min Temperature 36 °F 31 °F 16 °F (2014)
Degree Days  
Heating Degree Days 18 25  
Month to date heating degree days 393  
Since 1 July heating degree days 854  
Cooling Degree Days 0 0  
Month to date cooling degree days 0  
Year to date cooling degree days 944  
Moisture  
Dew Point 38 °F    
Average Humidity 71    
Maximum Humidity 87    
Minimum Humidity 45    
Precipitation  
Precipitation 0.00 in 0.12 in 0.99 in (1950)
Month to date precipitation 2.22  
Year to date precipitation 35.92  
Sea Level Pressure  
Sea Level Pressure 30.24 in    
Wind  
Wind Speed 5 mph (SSE)    
Max Wind Speed 13 mph    
Max Gust Speed -    
Visibility 10 miles    
Events Rain    
T = Trace of Precipitation, MM = Missing Value Source: NWS Daily Summary

Daily Weather History Graph

Daily Weather History Graph

Search for Another Location

Airport or City:

Trip Planner

Search our weather history database for the weather conditions in past years. The results will help you decide how hot, cold, wet, or windy it might be!

Date:

Astronomy

Nov. 19, 2012 Rise Set
Actual Time 6:43 AM CST 4:32 PM CST
Civil Twilight 6:14 AM CST 5:01 PM CST
Nautical Twilight 5:40 AM CST 5:34 PM CST
Astronomical Twilight 5:08 AM CST 6:07 PM CST
Moon 11:46 AM CST (11/19) 10:59 PM CST (11/19)
Length of Visible Light 10h 47m
Length of Day
9h 48m
Waxing Crescent, 41% of the Moon is Illuminated
Nov 19
Waxing Crescent
Nov 20
First Quarter
Nov 28
Full
Dec 6
Last Quarter
Dec 13
New

Hourly Weather History & Observations

Time (CST) Temp. Windchill Dew Point Humidity Pressure Visibility Wind Dir Wind Speed Gust Speed Precip Events Conditions
12:15 AM 39.4 °F 37.2 °F 32.4 °F 76% 30.33 in 10.0 mi SSE 3.5 mph - N/A   Clear
12:35 AM 38.7 °F - 32.5 °F 79% 30.33 in 10.0 mi Calm Calm - N/A   Clear
12:55 AM 37.8 °F - 32.5 °F 81% 30.32 in 10.0 mi Calm Calm - N/A   Clear
1:15 AM 36.9 °F 34.3 °F 32.9 °F 86% 30.33 in 10.0 mi ESE 3.5 mph - N/A   Clear
1:35 AM 37.0 °F 33.3 °F 32.7 °F 84% 30.33 in 10.0 mi ESE 4.6 mph - N/A   Clear
1:55 AM 38.5 °F 36.1 °F 32.2 °F 78% 30.33 in 10.0 mi SE 3.5 mph - N/A   Clear
2:15 AM 38.1 °F 35.7 °F 32.0 °F 79% 30.32 in 10.0 mi ESE 3.5 mph - N/A   Clear
2:35 AM 38.3 °F 34.8 °F 32.0 °F 78% 30.32 in 10.0 mi ESE 4.6 mph - N/A   Clear
2:55 AM 37.9 °F 35.5 °F 32.0 °F 79% 30.31 in 10.0 mi ESE 3.5 mph - N/A   Clear
3:15 AM 38.7 °F - 32.0 °F 77% 30.31 in 10.0 mi Calm Calm - N/A   Clear
3:35 AM 38.3 °F 35.9 °F 32.0 °F 78% 30.30 in 10.0 mi SE 3.5 mph - N/A   Clear
3:55 AM 38.5 °F 35.0 °F 32.4 °F 79% 30.30 in 10.0 mi SE 4.6 mph - N/A   Clear
4:15 AM 37.8 °F - 32.4 °F 81% 30.31 in 10.0 mi Calm Calm - N/A   Clear
4:35 AM 38.1 °F - 32.2 °F 79% 30.31 in 10.0 mi Calm Calm - N/A   Clear
4:55 AM 38.3 °F - 32.4 °F 79% 30.31 in 10.0 mi Calm Calm - N/A   Clear
5:15 AM 37.8 °F - 32.9 °F 83% 30.31 in 10.0 mi Calm Calm - N/A   Clear
5:35 AM 37.6 °F 33.1 °F 33.3 °F 84% 30.30 in 10.0 mi ESE 5.8 mph - N/A   Clear
5:55 AM 39.0 °F 34.8 °F 32.9 °F 79% 30.30 in 10.0 mi SE 5.8 mph - N/A   Clear
6:15 AM 38.8 °F 34.6 °F 32.9 °F 79% 30.31 in 10.0 mi SE 5.8 mph - N/A   Clear
6:35 AM 38.8 °F 36.5 °F 33.1 °F 80% 30.31 in 10.0 mi SE 3.5 mph - N/A   Clear
6:55 AM 38.3 °F 35.9 °F 33.6 °F 83% 30.30 in 10.0 mi SSE 3.5 mph - N/A   Clear
7:15 AM 37.4 °F 33.8 °F 33.8 °F 87% 30.31 in 10.0 mi SSE 4.6 mph - N/A   Clear
7:35 AM 38.7 °F 35.2 °F 34.7 °F 86% 30.31 in 10.0 mi SE 4.6 mph - N/A   Clear
7:55 AM 40.1 °F 36.9 °F 34.7 °F 81% 30.30 in 10.0 mi SSE 4.6 mph - N/A   Clear
8:15 AM 41.7 °F 38.8 °F 35.2 °F 78% 30.30 in 10.0 mi South 4.6 mph - N/A   Clear
8:35 AM 41.9 °F 40.0 °F 36.7 °F 82% 30.30 in 10.0 mi South 3.5 mph - N/A   Clear
8:55 AM 43.2 °F 40.5 °F 36.9 °F 78% 30.30 in 10.0 mi South 4.6 mph - N/A   Clear
9:15 AM 44.6 °F 42.2 °F 37.6 °F 76% 30.30 in 10.0 mi SSE 4.6 mph - N/A   Clear
9:35 AM 46.2 °F 43.3 °F 39.0 °F 76% 30.31 in 10.0 mi South 5.8 mph - N/A   Clear
9:55 AM 47.8 °F - 39.4 °F 72% 30.30 in 10.0 mi South 5.8 mph - N/A   Clear
10:15 AM 49.3 °F - 40.1 °F 71% 30.30 in 10.0 mi South 8.1 mph - N/A   Clear
10:35 AM 51.6 °F - 40.5 °F 66% 30.29 in 10.0 mi South 6.9 mph - N/A   Clear
10:55 AM 55.0 °F - 41.0 °F 59% 30.28 in 10.0 mi South 8.1 mph - N/A   Clear
11:15 AM 57.2 °F - 39.6 °F 52% 30.26 in 10.0 mi South 10.4 mph - N/A   Clear
11:35 AM 57.7 °F - 39.7 °F 51% 30.26 in 10.0 mi South 11.5 mph - N/A   Clear
11:55 AM 58.8 °F - 39.9 °F 50% 30.25 in 10.0 mi South 12.7 mph - N/A   Clear
12:15 PM 59.0 °F - 39.7 °F 49% 30.24 in 10.0 mi South 10.4 mph - N/A   Clear
12:35 PM 59.5 °F - 38.3 °F 45% 30.23 in 10.0 mi SSW 11.5 mph - N/A   Clear
12:55 PM 58.1 °F - 38.5 °F 48% 30.24 in 10.0 mi SSW 10.4 mph - N/A   Clear
1:15 PM 58.3 °F - 39.0 °F 49% 30.23 in 10.0 mi SW 11.5 mph - N/A   Clear
1:35 PM 58.6 °F - 39.2 °F 48% 30.22 in 10.0 mi SSW 10.4 mph - N/A   Clear
1:55 PM 57.4 °F - 39.2 °F 51% 30.21 in 10.0 mi SSW 6.9 mph - N/A   Clear
2:15 PM 57.4 °F - 39.4 °F 51% 30.21 in 10.0 mi SSW 8.1 mph - N/A   Clear
2:35 PM 57.4 °F - 40.3 °F 53% 30.21 in 10.0 mi SSW 6.9 mph - N/A   Clear
2:55 PM 57.2 °F - 40.3 °F 53% 30.20 in 10.0 mi South 5.8 mph - N/A   Clear
3:15 PM 57.2 °F - 40.3 °F 53% 30.20 in 10.0 mi SSW 6.9 mph - N/A   Clear
3:35 PM 56.7 °F - 38.7 °F 51% 30.19 in 10.0 mi SSW 8.1 mph - N/A   Scattered Clouds
3:55 PM 55.9 °F - 39.9 °F 55% 30.19 in 10.0 mi South 4.6 mph - N/A   Scattered Clouds
4:15 PM 55.0 °F - 40.3 °F 58% 30.19 in 10.0 mi South 4.6 mph - N/A   Mostly Cloudy
4:35 PM 53.4 °F - 41.9 °F 65% 30.18 in 10.0 mi South 5.8 mph - N/A   Overcast
4:55 PM 52.7 °F - 41.7 °F 66% 30.18 in 10.0 mi SSE 6.9 mph - N/A   Overcast
5:15 PM 52.3 °F - 42.3 °F 69% 30.18 in 10.0 mi South 6.9 mph - N/A   Overcast
5:35 PM 52.2 °F - 42.3 °F 69% 30.18 in 10.0 mi SSE 5.8 mph - N/A   Overcast
5:55 PM 51.8 °F - 42.6 °F 71% 30.18 in 10.0 mi SSE 4.6 mph - N/A   Overcast
6:15 PM 52.0 °F - 42.3 °F 69% 30.18 in 10.0 mi SSE 6.9 mph - N/A   Overcast
6:35 PM 52.3 °F - 42.1 °F 68% 30.18 in 10.0 mi SSE 8.1 mph - N/A   Overcast
6:55 PM 51.8 °F - 43.0 °F 72% 30.17 in 10.0 mi SSE 6.9 mph - N/A Rain Light Rain
7:15 PM 50.5 °F - 44.2 °F 79% 30.17 in 10.0 mi SE 5.8 mph - N/A Rain Light Rain
7:35 PM 50.9 °F - 43.7 °F 76% 30.17 in 10.0 mi SE 8.1 mph - N/A   Overcast
7:55 PM 50.9 °F - 43.5 °F 76% 30.17 in 10.0 mi SE 6.9 mph - N/A   Overcast
8:15 PM 50.5 °F - 43.3 °F 76% 30.16 in 10.0 mi SE 8.1 mph - N/A   Overcast
8:35 PM 50.4 °F - 43.7 °F 78% 30.16 in 10.0 mi SE 6.9 mph - N/A   Overcast
8:55 PM 50.0 °F - 42.8 °F 76% 30.17 in 10.0 mi SSE 3.5 mph - N/A   Overcast
9:15 PM 50.0 °F - 43.9 °F 79% 30.17 in 10.0 mi Calm Calm - N/A   Overcast
9:35 PM 50.0 °F - 43.7 °F 79% 30.16 in 10.0 mi SSE 4.6 mph - N/A   Overcast
9:55 PM 50.4 °F - 43.3 °F 77% 30.15 in 10.0 mi SSE 4.6 mph - N/A   Overcast
10:15 PM 50.0 °F - 43.3 °F 78% 30.15 in 10.0 mi South 5.8 mph - N/A   Mostly Cloudy
10:35 PM 50.2 °F - 43.3 °F 77% 30.15 in 10.0 mi South 8.1 mph - N/A   Mostly Cloudy
10:55 PM 50.5 °F - 43.0 °F 75% 30.15 in 10.0 mi South 6.9 mph - N/A   Overcast
11:15 PM 50.4 °F - 43.2 °F 76% 30.15 in 10.0 mi South 5.8 mph - N/A   Overcast
11:35 PM 50.2 °F - 43.5 °F 78% 30.14 in 10.0 mi South 5.8 mph - N/A   Overcast
11:55 PM 50.5 °F - 43.0 °F 75% 30.14 in 10.0 mi South 5.8 mph - N/A   Overcast